Simultaneous Nadir Overpasses (SNOs) Predictions

Prediction of SNOs between METOP-A and NOAA-19 Satellite Orbit:

Table of predicted SNOs for the next 14.0 days since TLE Epoch: 5/10/2019
Index Date (METOP-A) Time (METOP-A) Lat,Lon (METOP-A) SZA (METOP-A ) Date (NOAA-19) Time (NOAA-19) Lat,Lon (NOAA-19) SZA (NOAA-19 ) Distance(km) Time Diff (sec)
1 05/14/2019 05:08:52 79.63, 114.57 61.29 05/14/2019 05:07:38 79.63, 114.43 61.27 3.01 74
2 05/14/2019 05:59:34 -79.61, -78.25 118.75 05/14/2019 05:58:35 -79.63, -78.26 118.74 2.41 59
3 05/14/2019 06:50:14 79.60, 89.06 61.24 05/14/2019 06:49:38 79.61, 89.18 61.24 2.50 36
4 05/14/2019 07:40:55 -79.62,-103.50 118.75 05/14/2019 07:40:35 -79.60,-103.51 118.77 1.65 20
5 05/14/2019 08:31:35 79.62, 63.82 61.24 05/14/2019 08:31:39 79.61, 63.64 61.23 3.56 4
6 05/14/2019 09:22:17 -79.60,-129.01 118.80 05/14/2019 09:22:36 -79.61,-129.05 118.79 1.34 19
7 05/14/2019 10:12:57 79.60, 38.30 61.19 05/14/2019 10:13:39 79.59, 38.39 61.20 1.90 42
8 05/14/2019 11:03:38 -79.61,-154.25 118.80 05/14/2019 11:04:36 -79.58,-154.29 118.82 3.02 58




NCC Satellite Simultaneous Nadir Overpasses (SNOs) Prediction Service
